Location: Newark
(9.4667°S, 159.8167°E)
Time: 11:03:35
(UTC+00:00)

Courier 1B Rocket - Pass Details

Date: 27 November 2019
Orbit: 921 x 1202 km, 28.2° (Epoch: 15 December)

Event Time Altitude Azimuth Distance (km) Brightness Sun altitude
Rises 08:57:21 0° 313° (NW) 3,992 8.5 -21.3°
Reaches altitude 10° 09:00:13 10° 319° (NW) 3,063 7.7 -21.9°
Maximum altitude 09:07:33 48° 31° (NNE) 1,512 5.6 -23.5°
Enters shadow 09:09:00 44° 61° (ENE) 1,607 5.6 -23.8°
Drops below altitude 10° 09:15:02 10° 103° (ESE) 3,131 - -25.1°
Sets 09:18:00 0° 108° (ESE) 4,086 - -25.7°
